Starlink 5421

operational
NORAD ID: 54799 Int'l Des: 2022-175 Owner: SPXS Country: US Constellation: starlink
LEOCIRCULAR

Über Starlink 5421

Beschreibung wird geladen...

Live-Position

3D-Globus wird geladen...

Nächste Überflüge

Höhenverlauf

Altitude vs Time

uPlot chart will show altitude changes over time

Zweizeiliger Elementsatz

1 54799U 22175AT 25353.66670139 -.00020110 00000-0 -12485-2 0 9995
2 54799 53.2171 18.3214 0001406 82.3310 144.8658 15.08852630 5810
Epoch: 19. Dez. 2025 • Age: 5 hours

Aktueller Status

Höhe 549.1 km
Geschwindigkeit 7.59 km/s
Subsatellitenpunkt -29.39°S, 53.99°W
Startdatum 17. Dez. 2022
Alter 3 years
Typ internet

Technische Details

Klassifizierung Payload
Masse 305.00 kg
Trockenmasse 290.00 kg
Gesamtmasse 305.00 kg
Länge 0.20 m
Durchmesser 2.80 m
Spannweite 9.00 m
Form Box + pan
Hersteller SPXS
Bus-Typ Starlink
Phasenstatus In Orbit
Besitzer/Staat SPXS/US

Große Konstellationen

Loading constellations...